owner,sensor,date,latitude,longitude,vertical_datum,wind_speed,wind_to_direction,wind_speed_of_gust,qcFlag 
COMPS,ioos:station:USF.COMPS:SHP:1,2017-11-01T00:00:00Z,30.0600,-84.2910,10.0,1.28,227.06,1.56,'1111122,1111122,1111122' 
COMPS,ioos:station:USF.COMPS:SHP:1,2017-11-01T00:06:00Z,30.0600,-84.2910,10.0,1.55,217.82,1.86,'1111122,1111122,1111122' 
COMPS,ioos:station:USF.COMPS:SHP:1,2017-11-01T00:12:00Z,30.0600,-84.2910,10.0,1.53,228.44,1.76,'1111122,1111122,1111122' 
COMPS,ioos:station:USF.COMPS:SHP:1,2017-11-01T00:18:00Z,30.0600,-84.2910,10.0,1.13,243.93,1.66,'1111122,1111122,1111122' 
COMPS,ioos:station:USF.COMPS:SHP:1,2017-11-01T00:24:00Z,30.0600,-84.2910,10.0,1.58,250.87,2.05,'1111122,1111122,1111122' 
COMPS,ioos:station:USF.COMPS:SHP:1,2017-11-01T00:30:00Z,30.0600,-84.2910,10.0,1.58,261.77,2.05,'1111122,1111122,1111122' 
COMPS,ioos:station:USF.COMPS:SHP:1,2017-11-01T00:36:00Z,30.0600,-84.2910,10.0,1.33,277.51,1.76,'1111122,1111122,1111122' 
COMPS,ioos:station:USF.COMPS:SHP:1,2017-11-01T00:42:00Z,30.0600,-84.2910,10.0,1.02,264.16,1.27,'1111122,1111122,1111122' 
COMPS,ioos:station:USF.COMPS:SHP:1,2017-11-01T00:48:00Z,30.0600,-84.2910,10.0,1.16,275.78,1.56,'1111122,1111122,1111122' 
COMPS,ioos:station:USF.COMPS:SHP:1,2017-11-01T00:54:00Z,30.0600,-84.2910,10.0,1.05,268.8,1.47,'1111122,1111122,1111122' 
COMPS,ioos:station:USF.COMPS:SHP:1,2017-11-01T01:00:00Z,30.0600,-84.2910,10.0,1.14,299.07,1.56,'1111122,1111122,1111122' 
COMPS,ioos:station:USF.COMPS:SHP:1,2017-11-01T01:06:00Z,30.0600,-84.2910,10.0,0.9,292.41,1.47,'1111122,1111122,1111122' 
COMPS,ioos:station:USF.COMPS:SHP:1,2017-11-01T01:12:00Z,30.0600,-84.2910,10.0,0.33,307.95,0.58,'1111122,1111122,1111122' 
COMPS,ioos:station:USF.COMPS:SHP:1,2017-11-01T01:18:00Z,30.0600,-84.2910,10.0,0.54,285.69,0.78,'1111122,1111122,1111122' 
COMPS,ioos:station:USF.COMPS:SHP:1,2017-11-01T01:24:00Z,30.0600,-84.2910,10.0,0.34,300.2,0.58,'1111122,1111122,1111122' 
COMPS,ioos:station:USF.COMPS:SHP:1,2017-11-01T01:30:00Z,30.0600,-84.2910,10.0,0.53,310.85,0.68,'1111122,1111122,1111122' 
COMPS,ioos:station:USF.COMPS:SHP:1,2017-11-01T01:36:00Z,30.0600,-84.2910,10.0,0.66,325.42,0.97,'1111122,1111122,1111122' 
COMPS,ioos:station:USF.COMPS:SHP:1,2017-11-01T01:42:00Z,30.0600,-84.2910,10.0,0.6,349.55,0.78,'1111122,1111122,1111122' 
COMPS,ioos:station:USF.COMPS:SHP:1,2017-11-01T01:48:00Z,30.0600,-84.2910,10.0,0.67,350.49,0.88,'1111122,1111122,1111122' 
COMPS,ioos:station:USF.COMPS:SHP:1,2017-11-01T01:54:00Z,30.0600,-84.2910,10.0,0.63,348.75,0.88,'1111122,1111122,1111122' 
COMPS,ioos:station:USF.COMPS:SHP:1,2017-11-01T02:00:00Z,30.0600,-84.2910,10.0,0.63,344.71,0.78,'1111122,1111122,1111122' 
COMPS,ioos:station:USF.COMPS:SHP:1,2017-11-01T02:06:00Z,30.0600,-84.2910,10.0,0.67,329.64,0.78,'1111122,1111122,1111122' 
COMPS,ioos:station:USF.COMPS:SHP:1,2017-11-01T02:12:00Z,30.0600,-84.2910,10.0,0.95,323.02,1.37,'1111122,1111122,1111122' 
COMPS,ioos:station:USF.COMPS:SHP:1,2017-11-01T02:18:00Z,30.0600,-84.2910,10.0,1.38,315.69,1.66,'1111122,1111122,1111122' 
COMPS,ioos:station:USF.COMPS:SHP:1,2017-11-01T02:24:00Z,30.0600,-84.2910,10.0,1.69,325.93,1.96,'1111122,1111122,1111122' 
COMPS,ioos:station:USF.COMPS:SHP:1,2017-11-01T02:30:00Z,30.0600,-84.2910,10.0,2.1,320.85,2.45,'1111122,1111122,1111122' 
COMPS,ioos:station:USF.COMPS:SHP:1,2017-11-01T02:36:00Z,30.0600,-84.2910,10.0,2.07,318.57,2.45,'1111122,1111122,1111122' 
COMPS,ioos:station:USF.COMPS:SHP:1,2017-11-01T02:42:00Z,30.0600,-84.2910,10.0,1.45,311.75,1.96,'1111122,1111122,1111122' 
COMPS,ioos:station:USF.COMPS:SHP:1,2017-11-01T02:48:00Z,30.0600,-84.2910,10.0,1.11,311.93,1.47,'1111122,1111122,1111122' 
COMPS,ioos:station:USF.COMPS:SHP:1,2017-11-01T02:54:00Z,30.0600,-84.2910,10.0,1.03,318.78,1.27,'1111122,1111122,1111122' 
COMPS,ioos:station:USF.COMPS:SHP:1,2017-11-01T03:00:00Z,30.0600,-84.2910,10.0,0.9,315.47,1.17,'1111122,1111122,1111122' 
COMPS,ioos:station:USF.COMPS:SHP:1,2017-11-01T03:06:00Z,30.0600,-84.2910,10.0,0.73,330.08,0.97,'1111122,1111122,1111122' 
COMPS,ioos:station:USF.COMPS:SHP:1,2017-11-01T03:12:00Z,30.0600,-84.2910,10.0,0.84,350.41,1.07,'1111122,1111122,1111122' 
COMPS,ioos:station:USF.COMPS:SHP:1,2017-11-01T03:18:00Z,30.0600,-84.2910,10.0,1.0,349.31,1.17,'1111122,1111122,1111122' 
COMPS,ioos:station:USF.COMPS:SHP:1,2017-11-01T03:24:00Z,30.0600,-84.2910,10.0,1.21,345.33,1.56,'1111122,1111122,1111122' 
COMPS,ioos:station:USF.COMPS:SHP:1,2017-11-01T03:30:00Z,30.0600,-84.2910,10.0,1.4,343.98,1.56,'1111122,1111122,1111122' 
COMPS,ioos:station:USF.COMPS:SHP:1,2017-11-01T03:36:00Z,30.0600,-84.2910,10.0,1.29,341.43,1.56,'1111122,1111122,1111122' 
COMPS,ioos:station:USF.COMPS:SHP:1,2017-11-01T03:42:00Z,30.0600,-84.2910,10.0,1.37,338.15,1.66,'1111122,1111122,1111122' 
COMPS,ioos:station:USF.COMPS:SHP:1,2017-11-01T03:48:00Z,30.0600,-84.2910,10.0,1.42,336.06,1.56,'1111122,1111122,1111122' 
COMPS,ioos:station:USF.COMPS:SHP:1,2017-11-01T03:54:00Z,30.0600,-84.2910,10.0,1.44,339.18,1.76,'1111122,1111122,1111122' 
COMPS,ioos:station:USF.COMPS:SHP:1,2017-11-01T04:00:00Z,30.0600,-84.2910,10.0,1.17,345.39,1.47,'1111122,1111122,1111122' 
COMPS,ioos:station:USF.COMPS:SHP:1,2017-11-01T04:06:00Z,30.0600,-84.2910,10.0,1.35,337.27,1.76,'1111122,1111122,1111122' 
COMPS,ioos:station:USF.COMPS:SHP:1,2017-11-01T04:12:00Z,30.0600,-84.2910,10.0,1.25,332.22,1.66,'1111122,1111122,1111122' 
COMPS,ioos:station:USF.COMPS:SHP:1,2017-11-01T04:18:00Z,30.0600,-84.2910,10.0,1.17,332.8,1.56,'1111122,1111122,1111122' 
COMPS,ioos:station:USF.COMPS:SHP:1,2017-11-01T04:24:00Z,30.0600,-84.2910,10.0,1.29,338.16,1.56,'1111122,1111122,1111122' 
COMPS,ioos:station:USF.COMPS:SHP:1,2017-11-01T04:30:00Z,30.0600,-84.2910,10.0,1.14,350.68,1.56,'1111122,1111122,1111122' 
COMPS,ioos:station:USF.COMPS:SHP:1,2017-11-01T04:36:00Z,30.0600,-84.2910,10.0,1.29,354.29,1.56,'1111122,1111122,1111122' 
COMPS,ioos:station:USF.COMPS:SHP:1,2017-11-01T04:42:00Z,30.0600,-84.2910,10.0,1.32,355.27,1.66,'1111122,1111122,1111122' 
COMPS,ioos:station:USF.COMPS:SHP:1,2017-11-01T04:48:00Z,30.0600,-84.2910,10.0,1.43,349.67,1.86,'1111122,1111122,1111122' 
COMPS,ioos:station:USF.COMPS:SHP:1,2017-11-01T04:54:00Z,30.0600,-84.2910,10.0,1.24,358.89,1.76,'1111122,1111122,1111122' 
COMPS,ioos:station:USF.COMPS:SHP:1,2017-11-01T05:00:00Z,30.0600,-84.2910,10.0,1.56,355.8,1.86,'1111122,1111122,1111122' 
COMPS,ioos:station:USF.COMPS:SHP:1,2017-11-01T05:06:00Z,30.0600,-84.2910,10.0,1.59,359.75,1.86,'1111122,1111122,1111122' 
COMPS,ioos:station:USF.COMPS:SHP:1,2017-11-01T05:12:00Z,30.0600,-84.2910,10.0,1.32,355.89,1.66,'1111122,1111122,1111122' 
COMPS,ioos:station:USF.COMPS:SHP:1,2017-11-01T05:18:00Z,30.0600,-84.2910,10.0,1.49,6.17,1.86,'1111122,1111122,1111122' 
COMPS,ioos:station:USF.COMPS:SHP:1,2017-11-01T05:24:00Z,30.0600,-84.2910,10.0,2.07,4.86,2.45,'1111122,1111122,1111122' 
COMPS,ioos:station:USF.COMPS:SHP:1,2017-11-01T05:30:00Z,30.0600,-84.2910,10.0,2.19,4.63,2.45,'1111122,1111122,1111122' 
COMPS,ioos:station:USF.COMPS:SHP:1,2017-11-01T05:36:00Z,30.0600,-84.2910,10.0,1.92,3.56,2.45,'1111122,1111122,1111122' 
COMPS,ioos:station:USF.COMPS:SHP:1,2017-11-01T05:42:00Z,30.0600,-84.2910,10.0,1.41,1.22,1.76,'1111122,1111122,1111122' 
COMPS,ioos:station:USF.COMPS:SHP:1,2017-11-01T05:48:00Z,30.0600,-84.2910,10.0,1.47,5.34,1.66,'1111122,1111122,1111122' 
COMPS,ioos:station:USF.COMPS:SHP:1,2017-11-01T05:54:00Z,30.0600,-84.2910,10.0,1.31,14.02,1.66,'1111122,1111122,1111122' 
COMPS,ioos:station:USF.COMPS:SHP:1,2017-11-01T06:00:00Z,30.0600,-84.2910,10.0,1.03,27.81,1.37,'1111122,1111122,1111122' 
COMPS,ioos:station:USF.COMPS:SHP:1,2017-11-01T06:06:00Z,30.0600,-84.2910,10.0,1.05,36.43,1.66,'1111122,1111122,1111122' 
COMPS,ioos:station:USF.COMPS:SHP:1,2017-11-01T06:12:00Z,30.0600,-84.2910,10.0,0.62,53.58,1.37,'1111122,1111122,1111122' 
COMPS,ioos:station:USF.COMPS:SHP:1,2017-11-01T06:18:00Z,30.0600,-84.2910,10.0,0.54,51.77,1.17,'1111122,1111122,1111122' 
COMPS,ioos:station:USF.COMPS:SHP:1,2017-11-01T06:24:00Z,30.0600,-84.2910,10.0,0.39,48.91,0.88,'1111122,1111122,1111122' 
COMPS,ioos:station:USF.COMPS:SHP:1,2017-11-01T06:30:00Z,30.0600,-84.2910,10.0,0.71,30.76,1.07,'1111122,1111122,1111122' 
COMPS,ioos:station:USF.COMPS:SHP:1,2017-11-01T06:36:00Z,30.0600,-84.2910,10.0,0.63,29.39,0.97,'1111122,1111122,1111122' 
COMPS,ioos:station:USF.COMPS:SHP:1,2017-11-01T06:42:00Z,30.0600,-84.2910,10.0,0.91,27.49,1.76,'1111122,1111122,1111122' 
COMPS,ioos:station:USF.COMPS:SHP:1,2017-11-01T06:48:00Z,30.0600,-84.2910,10.0,1.31,40.9,1.76,'1111122,1111122,1111122' 
COMPS,ioos:station:USF.COMPS:SHP:1,2017-11-01T06:54:00Z,30.0600,-84.2910,10.0,1.48,43.86,1.96,'1111122,1111122,1111122' 
COMPS,ioos:station:USF.COMPS:SHP:1,2017-11-01T07:00:00Z,30.0600,-84.2910,10.0,1.36,38.73,1.76,'1111122,1111122,1111122' 
COMPS,ioos:station:USF.COMPS:SHP:1,2017-11-01T07:06:00Z,30.0600,-84.2910,10.0,1.3,44.1,1.76,'1111122,1111122,1111122' 
COMPS,ioos:station:USF.COMPS:SHP:1,2017-11-01T07:12:00Z,30.0600,-84.2910,10.0,1.38,43.99,1.86,'1111122,1111122,1111122' 
COMPS,ioos:station:USF.COMPS:SHP:1,2017-11-01T07:18:00Z,30.0600,-84.2910,10.0,1.42,47.39,1.96,'1111122,1111122,1111122' 
COMPS,ioos:station:USF.COMPS:SHP:1,2017-11-01T07:24:00Z,30.0600,-84.2910,10.0,1.51,45.37,2.15,'1111122,1111122,1111122' 
COMPS,ioos:station:USF.COMPS:SHP:1,2017-11-01T07:30:00Z,30.0600,-84.2910,10.0,1.06,51.05,1.86,'1111122,1111122,1111122' 
COMPS,ioos:station:USF.COMPS:SHP:1,2017-11-01T07:36:00Z,30.0600,-84.2910,10.0,1.67,45.43,2.25,'1111122,1111122,1111122' 
COMPS,ioos:station:USF.COMPS:SHP:1,2017-11-01T07:42:00Z,30.0600,-84.2910,10.0,1.44,49.37,2.15,'1111122,1111122,1111122' 
COMPS,ioos:station:USF.COMPS:SHP:1,2017-11-01T07:48:00Z,30.0600,-84.2910,10.0,1.73,42.11,2.45,'1111122,1111122,1111122' 
COMPS,ioos:station:USF.COMPS:SHP:1,2017-11-01T07:54:00Z,30.0600,-84.2910,10.0,1.69,36.76,2.15,'1111122,1111122,1111122' 
COMPS,ioos:station:USF.COMPS:SHP:1,2017-11-01T08:00:00Z,30.0600,-84.2910,10.0,1.76,38.23,2.35,'1111122,1111122,1111122' 
COMPS,ioos:station:USF.COMPS:SHP:1,2017-11-01T08:06:00Z,30.0600,-84.2910,10.0,1.64,43.15,2.45,'1111122,1111122,1111122' 
COMPS,ioos:station:USF.COMPS:SHP:1,2017-11-01T08:12:00Z,30.0600,-84.2910,10.0,1.6,43.66,2.25,'1111122,1111122,1111122' 
COMPS,ioos:station:USF.COMPS:SHP:1,2017-11-01T08:18:00Z,30.0600,-84.2910,10.0,1.7,40.78,2.15,'1111122,1111122,1111122' 
COMPS,ioos:station:USF.COMPS:SHP:1,2017-11-01T08:24:00Z,30.0600,-84.2910,10.0,1.76,41.49,2.25,'1111122,1111122,1111122' 
COMPS,ioos:station:USF.COMPS:SHP:1,2017-11-01T08:30:00Z,30.0600,-84.2910,10.0,1.55,38.89,2.05,'1111122,1111122,1111122' 
COMPS,ioos:station:USF.COMPS:SHP:1,2017-11-01T08:36:00Z,30.0600,-84.2910,10.0,1.43,29.9,2.05,'1111122,1111122,1111122' 
COMPS,ioos:station:USF.COMPS:SHP:1,2017-11-01T08:42:00Z,30.0600,-84.2910,10.0,1.23,25.65,1.76,'1111122,1111122,1111122' 
COMPS,ioos:station:USF.COMPS:SHP:1,2017-11-01T08:48:00Z,30.0600,-84.2910,10.0,1.21,19.19,1.56,'1111122,1111122,1111122' 
COMPS,ioos:station:USF.COMPS:SHP:1,2017-11-01T08:54:00Z,30.0600,-84.2910,10.0,1.03,19.47,1.56,'1111122,1111122,1111122' 
COMPS,ioos:station:USF.COMPS:SHP:1,2017-11-01T09:00:00Z,30.0600,-84.2910,10.0,0.85,23.36,1.37,'1111122,1111122,1111122' 
COMPS,ioos:station:USF.COMPS:SHP:1,2017-11-01T09:06:00Z,30.0600,-84.2910,10.0,0.9,31.73,1.17,'1111122,1111122,1111122' 
COMPS,ioos:station:USF.COMPS:SHP:1,2017-11-01T09:12:00Z,30.0600,-84.2910,10.0,1.13,32.33,1.66,'1111122,1111122,1111122' 
COMPS,ioos:station:USF.COMPS:SHP:1,2017-11-01T09:18:00Z,30.0600,-84.2910,10.0,1.24,43.48,2.05,'1111122,1111122,1111122' 
COMPS,ioos:station:USF.COMPS:SHP:1,2017-11-01T09:24:00Z,30.0600,-84.2910,10.0,1.36,38.4,1.96,'1111122,1111122,1111122' 
COMPS,ioos:station:USF.COMPS:SHP:1,2017-11-01T09:30:00Z,30.0600,-84.2910,10.0,1.23,42.56,1.86,'1111122,1111122,1111122' 
COMPS,ioos:station:USF.COMPS:SHP:1,2017-11-01T09:36:00Z,30.0600,-84.2910,10.0,1.18,28.44,1.66,'1111122,1111122,1111122' 
COMPS,ioos:station:USF.COMPS:SHP:1,2017-11-01T09:42:00Z,30.0600,-84.2910,10.0,1.56,31.4,2.05,'1111122,1111122,1111122' 
COMPS,ioos:station:USF.COMPS:SHP:1,2017-11-01T09:48:00Z,30.0600,-84.2910,10.0,1.49,22.04,2.05,'1111122,1111122,1111122' 
COMPS,ioos:station:USF.COMPS:SHP:1,2017-11-01T09:54:00Z,30.0600,-84.2910,10.0,1.31,19.34,1.86,'1111122,1111122,1111122' 
COMPS,ioos:station:USF.COMPS:SHP:1,2017-11-01T10:00:00Z,30.0600,-84.2910,10.0,1.62,19.47,1.96,'1111122,1111122,1111122' 
COMPS,ioos:station:USF.COMPS:SHP:1,2017-11-01T10:06:00Z,30.0600,-84.2910,10.0,1.71,15.4,2.05,'1111122,1111122,1111122' 
COMPS,ioos:station:USF.COMPS:SHP:1,2017-11-01T10:12:00Z,30.0600,-84.2910,10.0,1.69,7.66,2.05,'1111122,1111122,1111122' 
COMPS,ioos:station:USF.COMPS:SHP:1,2017-11-01T10:18:00Z,30.0600,-84.2910,10.0,1.76,19.62,2.35,'1111122,1111122,1111122' 
COMPS,ioos:station:USF.COMPS:SHP:1,2017-11-01T10:24:00Z,30.0600,-84.2910,10.0,1.65,20.58,2.15,'1111122,1111122,1111122' 
COMPS,ioos:station:USF.COMPS:SHP:1,2017-11-01T10:30:00Z,30.0600,-84.2910,10.0,1.79,24.65,2.64,'1111122,1111122,1111122' 
COMPS,ioos:station:USF.COMPS:SHP:1,2017-11-01T10:36:00Z,30.0600,-84.2910,10.0,2.0,33.64,2.64,'1111122,1111122,1111122' 
COMPS,ioos:station:USF.COMPS:SHP:1,2017-11-01T10:42:00Z,30.0600,-84.2910,10.0,2.31,39.22,3.03,'1111122,1111122,1111122' 
COMPS,ioos:station:USF.COMPS:SHP:1,2017-11-01T10:48:00Z,30.0600,-84.2910,10.0,2.43,43.82,3.62,'1111122,1111122,1111122' 
COMPS,ioos:station:USF.COMPS:SHP:1,2017-11-01T10:54:00Z,30.0600,-84.2910,10.0,2.47,44.33,3.23,'1111122,1111122,1111122' 
COMPS,ioos:station:USF.COMPS:SHP:1,2017-11-01T11:00:00Z,30.0600,-84.2910,10.0,2.28,50.03,3.43,'1111122,1111122,1111122' 
COMPS,ioos:station:USF.COMPS:SHP:1,2017-11-01T11:06:00Z,30.0600,-84.2910,10.0,2.18,42.51,3.03,'1111122,1111122,1111122' 
COMPS,ioos:station:USF.COMPS:SHP:1,2017-11-01T11:12:00Z,30.0600,-84.2910,10.0,1.57,46.59,3.03,'1111122,1111122,1111122' 
COMPS,ioos:station:USF.COMPS:SHP:1,2017-11-01T11:18:00Z,30.0600,-84.2910,10.0,0.9,50.99,1.86,'1111122,1111122,1111122' 
COMPS,ioos:station:USF.COMPS:SHP:1,2017-11-01T11:24:00Z,30.0600,-84.2910,10.0,1.0,55.84,2.54,'1111122,1111122,1111122' 
COMPS,ioos:station:USF.COMPS:SHP:1,2017-11-01T11:30:00Z,30.0600,-84.2910,10.0,1.18,52.03,2.64,'1111122,1111122,1111122' 
COMPS,ioos:station:USF.COMPS:SHP:1,2017-11-01T11:36:00Z,30.0600,-84.2910,10.0,1.09,46.92,2.15,'1111122,1111122,1111122' 
COMPS,ioos:station:USF.COMPS:SHP:1,2017-11-01T11:42:00Z,30.0600,-84.2910,10.0,0.98,60.96,2.05,'1111122,1111122,1111122' 
COMPS,ioos:station:USF.COMPS:SHP:1,2017-11-01T11:48:00Z,30.0600,-84.2910,10.0,1.22,58.9,2.05,'1111122,1111122,1111122' 
COMPS,ioos:station:USF.COMPS:SHP:1,2017-11-01T11:54:00Z,30.0600,-84.2910,10.0,1.02,57.34,1.96,'1111122,1111122,1111122' 
COMPS,ioos:station:USF.COMPS:SHP:1,2017-11-01T12:00:00Z,30.0600,-84.2910,10.0,1.32,48.11,2.25,'1111122,1111122,1111122' 
COMPS,ioos:station:USF.COMPS:SHP:1,2017-11-01T12:06:00Z,30.0600,-84.2910,10.0,0.86,64.22,1.96,'1111122,1111122,1111122' 
COMPS,ioos:station:USF.COMPS:SHP:1,2017-11-01T12:12:00Z,30.0600,-84.2910,10.0,1.32,57.97,2.54,'1111122,1111122,1111122' 
COMPS,ioos:station:USF.COMPS:SHP:1,2017-11-01T12:18:00Z,30.0600,-84.2910,10.0,1.19,57.63,2.64,'1111122,1111122,1111122' 
COMPS,ioos:station:USF.COMPS:SHP:1,2017-11-01T12:24:00Z,30.0600,-84.2910,10.0,0.98,51.77,2.05,'1111122,1111122,1111122' 
COMPS,ioos:station:USF.COMPS:SHP:1,2017-11-01T12:30:00Z,30.0600,-84.2910,10.0,1.07,50.91,2.54,'1111122,1111122,1111122' 
COMPS,ioos:station:USF.COMPS:SHP:1,2017-11-01T12:36:00Z,30.0600,-84.2910,10.0,1.2,50.98,2.05,'1111122,1111122,1111122' 
COMPS,ioos:station:USF.COMPS:SHP:1,2017-11-01T12:42:00Z,30.0600,-84.2910,10.0,1.65,44.39,2.84,'1111122,1111122,1111122' 
COMPS,ioos:station:USF.COMPS:SHP:1,2017-11-01T12:48:00Z,30.0600,-84.2910,10.0,1.5,36.51,2.45,'1111122,1111122,1111122' 
COMPS,ioos:station:USF.COMPS:SHP:1,2017-11-01T12:54:00Z,30.0600,-84.2910,10.0,1.88,45.81,3.13,'1111122,1111122,1111122' 
COMPS,ioos:station:USF.COMPS:SHP:1,2017-11-01T13:00:00Z,30.0600,-84.2910,10.0,1.44,45.76,2.84,'1111122,1111122,1111122' 
COMPS,ioos:station:USF.COMPS:SHP:1,2017-11-01T13:06:00Z,30.0600,-84.2910,10.0,1.5,42.64,3.03,'1111122,1111122,1111122' 
COMPS,ioos:station:USF.COMPS:SHP:1,2017-11-01T13:12:00Z,30.0600,-84.2910,10.0,1.81,50.42,3.23,'1111122,1111122,1111122' 
COMPS,ioos:station:USF.COMPS:SHP:1,2017-11-01T13:18:00Z,30.0600,-84.2910,10.0,1.52,43.91,3.43,'1111122,1111122,1111122' 
COMPS,ioos:station:USF.COMPS:SHP:1,2017-11-01T13:24:00Z,30.0600,-84.2910,10.0,2.38,41.75,3.72,'1111122,1111122,1111122' 
COMPS,ioos:station:USF.COMPS:SHP:1,2017-11-01T13:30:00Z,30.0600,-84.2910,10.0,1.93,42.58,3.43,'1111122,1111122,1111122' 
COMPS,ioos:station:USF.COMPS:SHP:1,2017-11-01T13:36:00Z,30.0600,-84.2910,10.0,1.51,49.21,3.13,'1111122,1111122,1111122' 
COMPS,ioos:station:USF.COMPS:SHP:1,2017-11-01T13:42:00Z,30.0600,-84.2910,10.0,1.61,48.24,2.74,'1111122,1111122,1111122' 
COMPS,ioos:station:USF.COMPS:SHP:1,2017-11-01T13:48:00Z,30.0600,-84.2910,10.0,1.34,44.99,2.64,'1111122,1111122,1111122' 
COMPS,ioos:station:USF.COMPS:SHP:1,2017-11-01T13:54:00Z,30.0600,-84.2910,10.0,1.36,44.69,2.84,'1111122,1111122,1111122' 
COMPS,ioos:station:USF.COMPS:SHP:1,2017-11-01T14:00:00Z,30.0600,-84.2910,10.0,1.42,45.15,2.64,'1111122,1111122,1111122' 
COMPS,ioos:station:USF.COMPS:SHP:1,2017-11-01T14:06:00Z,30.0600,-84.2910,10.0,1.69,54.79,3.13,'1111122,1111122,1111122' 
COMPS,ioos:station:USF.COMPS:SHP:1,2017-11-01T14:12:00Z,30.0600,-84.2910,10.0,1.63,59.87,3.23,'1111122,1111122,1111122' 
COMPS,ioos:station:USF.COMPS:SHP:1,2017-11-01T14:18:00Z,30.0600,-84.2910,10.0,1.42,54.75,3.03,'1111122,1111122,1111122' 
COMPS,ioos:station:USF.COMPS:SHP:1,2017-11-01T14:24:00Z,30.0600,-84.2910,10.0,1.43,54.77,2.54,'1111122,1111122,1111122' 
COMPS,ioos:station:USF.COMPS:SHP:1,2017-11-01T14:30:00Z,30.0600,-84.2910,10.0,1.35,57.17,2.45,'1111122,1111122,1111122' 
COMPS,ioos:station:USF.COMPS:SHP:1,2017-11-01T14:36:00Z,30.0600,-84.2910,10.0,1.58,65.44,2.54,'1111122,1111122,1111122' 
COMPS,ioos:station:USF.COMPS:SHP:1,2017-11-01T14:42:00Z,30.0600,-84.2910,10.0,1.45,61.99,2.64,'1111122,1111122,1111122' 
COMPS,ioos:station:USF.COMPS:SHP:1,2017-11-01T14:48:00Z,30.0600,-84.2910,10.0,0.96,73.43,2.64,'1111122,1111122,1111122' 
COMPS,ioos:station:USF.COMPS:SHP:1,2017-11-01T14:54:00Z,30.0600,-84.2910,10.0,1.45,93.6,2.54,'1111122,1111122,1111122' 
COMPS,ioos:station:USF.COMPS:SHP:1,2017-11-01T15:00:00Z,30.0600,-84.2910,10.0,1.09,79.86,2.74,'1111122,1111122,1111122' 
COMPS,ioos:station:USF.COMPS:SHP:1,2017-11-01T15:06:00Z,30.0600,-84.2910,10.0,0.78,82.2,2.15,'1111122,1111122,1111122' 
COMPS,ioos:station:USF.COMPS:SHP:1,2017-11-01T15:12:00Z,30.0600,-84.2910,10.0,0.97,80.98,3.03,'1111122,1111122,1111122' 
COMPS,ioos:station:USF.COMPS:SHP:1,2017-11-01T15:18:00Z,30.0600,-84.2910,10.0,0.9,77.66,2.25,'1111122,1111122,1111122' 
COMPS,ioos:station:USF.COMPS:SHP:1,2017-11-01T15:24:00Z,30.0600,-84.2910,10.0,0.63,61.9,1.76,'1111122,1111122,1111122' 
COMPS,ioos:station:USF.COMPS:SHP:1,2017-11-01T15:30:00Z,30.0600,-84.2910,10.0,1.36,78.97,3.13,'1111122,1111122,1111122' 
COMPS,ioos:station:USF.COMPS:SHP:1,2017-11-01T15:36:00Z,30.0600,-84.2910,10.0,1.62,92.07,3.03,'1111122,1111122,1111122' 
COMPS,ioos:station:USF.COMPS:SHP:1,2017-11-01T15:42:00Z,30.0600,-84.2910,10.0,1.69,93.84,3.23,'1111122,1111122,1111122' 
COMPS,ioos:station:USF.COMPS:SHP:1,2017-11-01T15:48:00Z,30.0600,-84.2910,10.0,2.35,97.95,3.33,'1111122,1111122,1111122' 
COMPS,ioos:station:USF.COMPS:SHP:1,2017-11-01T15:54:00Z,30.0600,-84.2910,10.0,2.46,99.52,3.72,'1111122,1111122,1111122' 
COMPS,ioos:station:USF.COMPS:SHP:1,2017-11-01T16:00:00Z,30.0600,-84.2910,10.0,1.74,100.69,3.43,'1111122,1111122,1111122' 
COMPS,ioos:station:USF.COMPS:SHP:1,2017-11-01T16:06:00Z,30.0600,-84.2910,10.0,2.21,98.56,3.52,'1111122,1111122,1111122' 
COMPS,ioos:station:USF.COMPS:SHP:1,2017-11-01T16:12:00Z,30.0600,-84.2910,10.0,2.37,98.12,3.72,'1111122,1111122,1111122' 
COMPS,ioos:station:USF.COMPS:SHP:1,2017-11-01T16:18:00Z,30.0600,-84.2910,10.0,2.22,98.01,3.62,'1111122,1111122,1111122' 
COMPS,ioos:station:USF.COMPS:SHP:1,2017-11-01T16:24:00Z,30.0600,-84.2910,10.0,1.79,103.81,3.23,'1111122,1111122,1111122' 
COMPS,ioos:station:USF.COMPS:SHP:1,2017-11-01T16:30:00Z,30.0600,-84.2910,10.0,1.75,105.83,3.13,'1111122,1111122,1111122' 
COMPS,ioos:station:USF.COMPS:SHP:1,2017-11-01T16:36:00Z,30.0600,-84.2910,10.0,2.15,109.72,3.03,'1111122,1111122,1111122' 
COMPS,ioos:station:USF.COMPS:SHP:1,2017-11-01T16:42:00Z,30.0600,-84.2910,10.0,2.33,106.89,3.92,'1111122,1111122,1111122' 
COMPS,ioos:station:USF.COMPS:SHP:1,2017-11-01T16:48:00Z,30.0600,-84.2910,10.0,2.33,110.06,3.33,'1111122,1111122,1111122' 
COMPS,ioos:station:USF.COMPS:SHP:1,2017-11-01T16:54:00Z,30.0600,-84.2910,10.0,2.82,110.35,3.82,'1111122,1111122,1111122' 
COMPS,ioos:station:USF.COMPS:SHP:1,2017-11-01T17:00:00Z,30.0600,-84.2910,10.0,2.61,119.5,3.92,'1111122,1111122,1111122' 
COMPS,ioos:station:USF.COMPS:SHP:1,2017-11-01T17:06:00Z,30.0600,-84.2910,10.0,2.28,117.82,3.72,'1111122,1111122,1111122' 
COMPS,ioos:station:USF.COMPS:SHP:1,2017-11-01T17:12:00Z,30.0600,-84.2910,10.0,2.71,117.08,3.82,'1111122,1111122,1111122' 
COMPS,ioos:station:USF.COMPS:SHP:1,2017-11-01T17:18:00Z,30.0600,-84.2910,10.0,2.95,122.17,4.5,'1111122,1111122,1111122' 
COMPS,ioos:station:USF.COMPS:SHP:1,2017-11-01T17:24:00Z,30.0600,-84.2910,10.0,3.11,119.13,4.21,'1111122,1111122,1111122' 
COMPS,ioos:station:USF.COMPS:SHP:1,2017-11-01T17:30:00Z,30.0600,-84.2910,10.0,3.0,125.56,4.11,'1111122,1111122,1111122' 
COMPS,ioos:station:USF.COMPS:SHP:1,2017-11-01T17:36:00Z,30.0600,-84.2910,10.0,3.48,126.77,4.8,'1111122,1111122,1111122' 
COMPS,ioos:station:USF.COMPS:SHP:1,2017-11-01T17:42:00Z,30.0600,-84.2910,10.0,3.74,124.03,4.99,'1111122,1111122,1111122' 
COMPS,ioos:station:USF.COMPS:SHP:1,2017-11-01T17:48:00Z,30.0600,-84.2910,10.0,4.21,128.72,5.19,'1111122,1111122,1111122' 
COMPS,ioos:station:USF.COMPS:SHP:1,2017-11-01T17:54:00Z,30.0600,-84.2910,10.0,3.77,127.52,4.8,'1111122,1111122,1111122' 
COMPS,ioos:station:USF.COMPS:SHP:1,2017-11-01T18:00:00Z,30.0600,-84.2910,10.0,3.5,123.68,4.99,'1111122,1111122,1111122' 
COMPS,ioos:station:USF.COMPS:SHP:1,2017-11-01T18:06:00Z,30.0600,-84.2910,10.0,3.69,127.21,4.7,'1111122,1111122,1111122' 
COMPS,ioos:station:USF.COMPS:SHP:1,2017-11-01T18:12:00Z,30.0600,-84.2910,10.0,3.45,125.69,4.5,'1111122,1111122,1111122' 
COMPS,ioos:station:USF.COMPS:SHP:1,2017-11-01T18:18:00Z,30.0600,-84.2910,10.0,3.87,130.48,4.6,'1111122,1111122,1111122' 
COMPS,ioos:station:USF.COMPS:SHP:1,2017-11-01T18:24:00Z,30.0600,-84.2910,10.0,3.69,129.23,4.41,'1111122,1111122,1111122' 
COMPS,ioos:station:USF.COMPS:SHP:1,2017-11-01T18:30:00Z,30.0600,-84.2910,10.0,3.37,131.21,4.01,'1111122,1111122,1111122' 
COMPS,ioos:station:USF.COMPS:SHP:1,2017-11-01T18:36:00Z,30.0600,-84.2910,10.0,3.57,132.65,4.11,'1111122,1111122,1111122' 
COMPS,ioos:station:USF.COMPS:SHP:1,2017-11-01T18:42:00Z,30.0600,-84.2910,10.0,3.34,129.36,3.92,'1111122,1111122,1111122' 
COMPS,ioos:station:USF.COMPS:SHP:1,2017-11-01T18:48:00Z,30.0600,-84.2910,10.0,3.51,130.93,4.21,'1111122,1111122,1111122' 
COMPS,ioos:station:USF.COMPS:SHP:1,2017-11-01T18:54:00Z,30.0600,-84.2910,10.0,3.75,130.82,4.41,'1111122,1111122,1111122' 
COMPS,ioos:station:USF.COMPS:SHP:1,2017-11-01T19:00:00Z,30.0600,-84.2910,10.0,3.42,130.78,4.31,'1111122,1111122,1111122' 
COMPS,ioos:station:USF.COMPS:SHP:1,2017-11-01T19:06:00Z,30.0600,-84.2910,10.0,3.56,130.07,4.31,'1111122,1111122,1111122' 
COMPS,ioos:station:USF.COMPS:SHP:1,2017-11-01T19:12:00Z,30.0600,-84.2910,10.0,3.53,129.66,4.5,'1111122,1111122,1111122' 
COMPS,ioos:station:USF.COMPS:SHP:1,2017-11-01T19:18:00Z,30.0600,-84.2910,10.0,3.67,131.47,4.5,'1111122,1111122,1111122' 
COMPS,ioos:station:USF.COMPS:SHP:1,2017-11-01T19:24:00Z,30.0600,-84.2910,10.0,3.37,133.66,4.01,'1111122,1111122,1111122' 
COMPS,ioos:station:USF.COMPS:SHP:1,2017-11-01T19:30:00Z,30.0600,-84.2910,10.0,3.28,129.29,3.82,'1111122,1111122,1111122' 
COMPS,ioos:station:USF.COMPS:SHP:1,2017-11-01T19:36:00Z,30.0600,-84.2910,10.0,2.84,128.84,3.62,'1111122,1111122,1111122' 